Theta_e
299 298 299 301 298 299 298 296 296 292 294 295 293 297 297 298 301 301 301 306 310 313 313 311 310 311 312 312 313 313 313 313 313 313 314 315 315 314
300 298 299 300 298 298 299 298 296 297 294 294 296 296 298 300 300 301 300 306 308 311 312 311 309 310 310 311 311 311 311 311 311 312 313 313 314 314
299 298 299 299 298 297 297 299 298 297 295 298 300 300 297 296 298 298 299 298 299 308 311 311 311 310 309 310 311 310 309 310 310 310 311 311 312 313
299 298 299 301 297 299 298 298 297 299 297 296 299 299 296 296 297 297 299 301 297 303 308 310 310 310 310 309 309 309 310 310 309 309 310 310 311 311
299 298 299 298 298 298 297 297 298 299 298 297 297 298 296 295 295 296 296 295 299 303 306 307 309 309 309 309 308 308 308 308 308 308 308 308 309 310
300 299 299 298 298 298 297 297 298 296 297 296 297 297 296 295 294 293 294 294 296 300 302 304 305 306 307 307 307 307 307 307 307 307 307 307 307 308
299 300 300 302 307 307 303 298 296 295 294 293 294 294 292 292 292 292 294 297 297 298 298 298 299 300 301 304 304 305 306 306 305 306 306 307 307 306
297 298 299 303 303 309 311 312 310 296 294 293 296 295 294 292 293 295 296 295 293 298 296 296 299 298 300 301 303 304 304 304 304 304 305 305 306 306
297 298 299 302 305 301 305 308 306 308 310 300 297 297 296 295 295 289 291 295 296 298 296 294 297 296 299 300 303 303 304 304 303 303 303 303 304 305
298 298 298 299 300 302 301 299 298 298 298 299 297 297 298 299 300 301 301 297 296 297 297 292 294 294 297 298 301 302 302 303 303 303 303 302 304 305
299 299 299 299 305 309 299 296 296 296 302 306 307 308 308 309 307 302 298 296 294 290 292 293 291 290 293 294 296 299 300 301 302 302 302 302 303 302
297 299 304 303 306 306 299 295 293 294 295 297 301 302 303 302 304 301 299 295 294 292 292 290 290 290 288 292 293 294 296 299 301 302 301 301 301 297
296 296 298 304 305 305 304 297 296 298 301 298 294 293 296 294 294 295 294 294 293 293 297 292 290 289 289 289 289 292 294 295 296 298 301 301 301 296
296 296 297 301 301 301 301 303 302 296 292 290 289 288 288 289 290 290 293 293 294 294 298 298 290 290 289 288 287 290 290 291 292 292 293 298 300 300
296 298 298 298 299 298 300 298 295 289 287 285 285 286 286 287 288 289 290 291 292 293 297 298 293 293 291 290 288 288 288 289 290 291 291 291 291 290
295 292 295 296 297 294 292 290 288 287 286 284 284 285 286 286 286 287 287 288 288 289 292 295 296 295 292 292 291 288 289 287 288 290 291 289 289 290
294 290 288 289 287 287 286 286 286 285 285 284 284 284 285 286 287 287 287 286 285 286 289 292 294 295 294 293 290 290 288 288 289 287 287 285 286 288
290 287 286 286 285 285 284 284 284 285 284 284 284 284 285 285 287 286 286 286 285 286 286 289 290 288 288 290 294 290 290 288 289 289 286 285 284 286
287 286 285 285 284 284 283 283 282 283 284 284 284 285 285 285 285 284 284 285 285 286 285 288 289 287 284 283 289 294 289 289 288 287 287 285 284 286
287 286 285 285 284 284 283 283 283 284 284 283 284 284 284 284 283 283 283 283 285 284 284 285 287 287 284 285 285 289 292 290 288 287 286 286 287 291
286 285 285 285 284 283 283 283 283 283 284 284 286 284 284 284 283 282 284 285 285 282 281 283 285 291 291 289 286 287 289 291 292 289 287 285 283 283
287 285 285 285 284 283 283 284 284 283 283 286 286 286 283 284 283 283 283 282 282 281 282 284 286 287 288 286 285 286 286 288 289 292 291 289 284 281
286 285 284 284 284 284 283 284 285 286 286 285 286 286 285 285 284 283 283 283 282 282 282 281 283 285 286 286 286 285 286 285 285 285 286 292 291 291
Wind_Speed
7 7 8 8 5 6 6 5 7 10 11 5 4 4 4 4 7 6 8 13 21 19 19 20 20 21 22 23 24 24 23 23 22 23 24 23 19 19
6 7 8 7 5 5 7 5 6 10 13 2 6 4 5 5 7 7 8 15 19 21 19 17 19 20 21 23 24 24 24 23 23 23 24 23 21 18
6 6 9 7 6 6 5 6 7 7 12 11 8 7 5 6 6 6 6 7 7 20 20 19 18 19 20 23 24 24 26 25 24 25 25 22 25 21
7 7 10 7 8 9 6 9 8 9 8 17 11 8 7 6 6 7 7 7 6 14 22 21 20 20 21 21 21 22 25 27 25 24 26 24 23 24
7 7 9 7 9 6 6 7 7 8 8 9 11 6 5 3 5 6 5 6 6 15 18 20 19 20 18 19 21 23 25 26 27 24 27 23 25 24
7 7 7 7 9 8 7 9 8 7 7 7 8 9 5 4 3 4 5 3 6 6 11 14 16 17 21 24 25 24 24 21 22 24 25 23 24 24
6 6 6 8 15 14 8 7 6 5 4 4 7 3 3 3 5 3 4 5 3 4 5 6 6 8 9 16 18 23 23 21 21 22 23 22 21 23
6 7 6 11 11 16 16 17 11 6 5 3 6 6 6 4 3 4 5 4 4 4 4 7 5 8 8 8 17 22 23 23 22 22 23 23 19 21
6 6 7 6 9 7 12 14 11 13 12 6 6 6 6 5 4 3 5 6 7 7 4 8 4 8 9 10 20 22 23 22 21 20 19 19 23 22
6 7 6 8 7 7 4 4 6 6 6 5 6 7 7 8 6 8 9 6 5 5 4 7 3 7 7 8 18 21 23 22 21 18 17 16 17 17
5 6 5 6 8 6 3 4 6 5 7 12 12 14 15 13 12 6 6 6 8 3 4 4 3 4 3 6 8 18 21 22 20 18 17 18 14 12
5 5 6 4 9 8 4 4 6 6 6 6 5 6 7 7 12 6 6 8 7 5 4 4 2 2 3 3 5 5 6 15 17 15 14 15 14 4
3 4 4 10 12 10 9 4 6 6 6 4 4 5 5 5 4 4 4 6 9 10 6 5 4 3 3 3 2 3 4 4 4 4 12 12 13 10
4 3 4 13 16 14 10 8 7 7 4 4 4 3 3 4 5 5 6 7 7 11 12 9 3 5 4 3 3 2 3 3 3 2 3 7 15 15
2 6 12 14 13 8 8 9 8 4 3 3 3 3 3 5 6 6 6 7 8 9 8 8 4 7 6 5 3 3 2 2 2 3 2 4 3 2
5 4 8 10 4 5 4 4 2 2 1 2 3 4 5 4 5 5 5 6 6 8 7 7 8 7 7 6 6 4 4 2 1 3 4 3 3 3
5 2 3 3 3 3 2 3 3 3 4 4 4 5 5 5 6 5 5 6 5 8 8 8 5 7 7 8 5 6 4 3 3 3 4 3 3 5
1 1 2 2 2 2 2 2 2 4 3 4 4 5 5 7 8 6 7 8 9 8 7 8 8 3 2 3 10 5 5 5 5 5 3 4 3 4
1 4 4 4 2 1 0 1 2 3 3 4 4 5 5 6 10 7 7 7 8 6 8 7 6 3 5 6 2 11 5 5 5 5 5 3 2 3
2 3 3 3 3 2 1 2 2 4 3 4 4 4 4 6 7 7 9 9 7 7 9 7 6 5 5 4 2 2 13 6 6 7 5 3 3 7
4 4 4 3 3 3 2 2 3 4 5 4 6 4 4 5 7 6 8 15 14 6 9 9 8 18 7 3 3 4 2 15 7 7 5 5 3 2
4 5 4 3 3 3 4 4 2 3 5 5 6 5 4 6 6 7 7 8 8 7 10 9 9 7 4 3 6 6 1 1 3 5 13 10 5 4
5 4 4 4 4 4 4 4 3 4 5 7 6 5 5 7 6 5 7 9 10 9 8 8 8 6 6 4 7 4 3 3 3 2 2 10 8 5
Wind_Direction
233 227 235 251 216 226 228 207 246 284 285 259 256 260 268 268 253 248 240 244 257 261 257 260 265 264 264 261 261 259 259 261 264 266 267 268 259 257
238 233 243 250 236 222 230 223 219 254 274 220 261 252 253 264 262 253 249 249 258 260 253 252 258 264 266 264 261 261 264 266 268 267 267 269 266 256
242 240 250 238 244 235 225 230 239 234 261 278 276 266 251 252 269 263 255 251 251 256 253 252 250 256 264 259 261 262 260 262 263 266 266 264 267 259
248 242 253 248 240 243 230 239 234 238 245 270 273 273 250 238 240 258 264 263 240 247 253 255 256 257 256 259 263 264 268 268 257 263 267 266 256 261
249 244 254 240 258 255 237 240 236 243 239 257 275 273 258 235 262 259 258 259 254 254 257 259 260 267 274 277 268 261 261 261 265 253 260 261 267 264
256 252 257 248 255 259 248 244 242 238 244 253 264 272 269 253 243 260 275 246 263 258 255 257 262 270 277 278 274 268 267 266 270 250 256 249 252 258
273 270 270 265 272 272 262 256 235 237 232 236 262 282 280 292 246 265 260 276 271 238 245 248 243 247 254 267 272 273 270 260 263 265 265 245 242 245
287 292 284 291 287 289 289 288 263 213 236 235 270 266 271 243 243 248 261 271 286 227 235 260 239 255 255 253 254 263 266 263 260 264 256 257 244 236
284 277 287 279 279 272 286 298 311 310 284 227 254 265 269 247 230 254 246 254 263 265 205 263 228 252 251 254 261 270 268 263 258 261 257 246 246 243
277 275 273 284 279 275 278 315 307 299 294 286 260 269 258 263 244 258 267 250 263 264 212 268 211 247 256 255 265 271 273 266 263 255 260 263 257 218
296 310 298 308 319 350 14 309 300 296 298 299 299 298 304 295 294 292 282 273 285 241 225 237 219 251 240 263 261 270 274 271 260 249 249 242 233 211
321 316 338 39 2 346 312 285 288 281 292 299 309 319 312 304 318 316 311 294 288 277 222 210 234 202 280 255 258 262 264 272 260 248 235 246 220 193
291 313 323 321 328 324 315 280 263 274 297 330 330 317 336 337 332 340 316 307 301 289 265 201 202 209 217 265 249 257 249 259 252 235 234 245 231 180
276 310 319 321 316 315 315 308 356 28 10 357 345 331 334 332 309 296 289 283 282 284 286 262 235 202 209 234 247 240 249 251 207 204 197 236 236 196
319 330 331 326 324 333 17 56 49 40 13 7 311 286 267 265 277 283 284 282 286 282 282 274 224 251 233 238 239 213 208 247 222 180 192 206 166 122
335 336 326 318 351 43 42 37 31 3 7 304 300 292 298 316 297 291 295 301 306 308 297 255 260 254 258 244 241 226 188 208 235 201 215 190 171 176
333 354 338 348 354 343 349 357 6 24 348 320 311 311 299 298 292 296 303 304 300 318 314 317 263 263 259 255 240 225 193 198 205 199 189 201 206 198
353 303 282 273 276 286 321 342 328 347 308 307 306 302 313 316 310 323 315 318 311 315 318 315 312 302 303 263 233 232 206 199 195 206 214 193 219 201
224 239 243 247 245 287 297 183 274 292 288 294 294 292 305 306 315 308 316 322 313 307 320 315 311 288 284 276 289 224 226 207 181 189 204 188 209 224
228 250 253 253 234 196 209 246 279 304 291 281 282 284 290 298 305 310 319 317 307 323 318 314 321 295 262 281 285 255 215 224 189 188 177 144 225 321
249 252 244 231 229 209 219 267 266 276 289 280 287 266 289 290 299 294 302 309 316 308 309 308 308 312 296 237 241 259 256 224 214 186 153 162 152 189
248 249 247 230 211 216 231 247 240 280 274 288 285 278 282 285 284 292 295 296 297 286 301 300 310 315 297 225 255 263 255 95 98 184 180 160 158 196
233 233 239 226 220 225 239 246 265 279 291 303 293 294 292 292 278 279 290 298 297 297 295 301 309 311 293 267 263 251 215 196 162 133 56 215 195 142